213  
ASUS41 KBOX 252310  
RWRBOX  
 
REGIONAL WEATHER ROUNDUP  
NATIONAL WEATHER SERVICE BOSTON/NORTON MA  
600 PM EST SAT JAN 25 2020  
 
NOTE: "FAIR" INDICATES FEW OR NO CLOUDS BELOW 12,000 FEET WITH NO  
SIGNIFICANT WEATHER AND/OR S TO VISIBILITY
.  
 
MAZALL-260000-  
EASTERN MASSACHUSETTS  
 
CITY SKY/WX TMP DP RH WIND PRES REMARKS
 
BOSTON LGT RAIN 45 40 82 E16 29.95F  
BEVERLY RAIN 44 41 89 E16G23 29.97F FOG  
LAWRENCE LGT RAIN 41 38 89 NE17 29.98F  
BEDFORD LGT RAIN 44 40 85 E20G25 29.94F FOG  
BLUE HILL N/A 42 42 100 E24G35 29.90F  
NORWOOD LGT RAIN 48 42 80 E12G20 29.93F  
MARSHFIELD LGT RAIN 45 45 100 E14G25 29.94F  
PLYMOUTH LGT RAIN 44 43 96 E15 29.93F FOG  
TAUNTON LGT RAIN 45 43 93 E12G17 29.91F FOG  
NEW BEDFORD LGT RAIN 46 44 93 E14G23 29.87F FOG  

 
 
MAZALL-260000-  
CAPE COD AND THE ISLANDS  
 
CITY SKY/WX TMP DP RH WIND PRES REMARKS
 
FALMOUTH CLOUDY 45 45 100 E22G32 29.92F  
HYANNIS LGT RAIN 47 43 86 E16G25 29.91F FOG  
CHATHAM LGT RAIN 45 44 97 E14G23 29.97F FOG  
PROVINCETOWN LGT RAIN 45 44 97 E16G25 29.97F FOG  
NANTUCKET LGT RAIN 47 45 93 E23G33 29.92F FOG  
MARTHAS VNYRD CLOUDY 45 44 97 E16 29.89F FOG  

 
 
MAZALL-260000-  
CENTRAL AND WESTERN MASSACHUSETTS  
 
CITY SKY/WX TMP DP RH WIND PRES REMARKS
 
WORCESTER LGT RAIN 39 38 96 E10G25 29.86F VSB 1/4  
FITCHBURG LGT RAIN 40 38 93 E9 29.91F FOG  
ORANGE RAIN 41 37 86 E9G22 29.87F FOG  
SPRINGFIELD LGT RAIN 42 40 92 E9 29.82F FOG  
WESTFIELD HVY RAIN 41 39 93 N7 29.83F FOG  
NORTH ADAMS LGT RAIN 40 34 79 E22G30 29.82F WCI 30  
PITTSFIELD LGT RAIN 38 35 89 VRB5 29.80R  

 
 
RIZALL-260000-  
RHODE ISLAND  
 
CITY SKY/WX TMP DP RH WIND PRES REMARKS
 
PROVIDENCE LGT RAIN 45 45 100 E16G25 29.85F FOG  
NEWPORT LGT RAIN 46 44 93 E17G29 29.85F FOG  
BLOCK ISLAND LGT RAIN 45 45 100 E23G33 29.82F  
SMITHFIELD RAIN 43 43 100 E10G20 29.86F FOG  
WESTERLY RAIN 48 43 82 E18G33 29.81F  

 
 
CTZALL-260000-  
CONNECTICUT  
 
CITY SKY/WX TMP DP RH WIND PRES REMARKS
 
BRADLEY INTL RAIN 42 40 92 N8 29.80F FOG  
HARTFORD HVY RAIN 45 42 89 N8 29.78F FOG  
BRIDGEPORT LGT RAIN 48 47 96 E12 29.74S  
DANBURY CLOUDY 42 41 96 NE5 29.76F  
GROTON HVY RAIN 46 46 100 E25G33 29.78F FOG  
NEW HAVEN LGT RAIN 47 46 97 SW14G30 29.78R FOG  
CHESTER RAIN 48 48 100 E15G25 29.75F  
MERIDEN LGT RAIN 50 47 89 E12G24 29.72F  
WILLIMANTIC RAIN 45 44 97 CALM 29.84S FOG  
OXFORD LGT RAIN 42 42 100 VRB6 29.77R FOG  

 
 
MEZ002-015-021-024-NHZ003-005-008-011-012-014-VTZ005-008-260000-  
NORTHERN NEW ENGLAND  
 
CITY SKY/WX TMP DP RH WIND PRES REMARKS
 
PORTLAND ME CLOUDY 39 35 86 E21G31 30.10F WCI 29  
BANGOR ME CLOUDY 35 29 78 E8 30.21F WCI 29  
CONCORD NH CLOUDY 37 35 92 E15G25 29.99F WCI 28  
MANCHESTER NH LGT RAIN 40 38 93 E13G23 29.96F FOG  
NASHUA NH LGT RAIN 40 40 100 E8G21 29.98F  
PORTSMOUTH NH LGT RAIN 41 39 93 E14G22 30.01F FOG  
JAFFREY NH MIX PCPN 37 36 96 NE8 29.89F FOG WCI 31  
KEENE NH LGT RAIN 40 37 89 CALM 29.90F  
BURLINGTON VT LGT RAIN 37 33 85 E5 29.91S  
MT. WASHINGTON FOG 18 18 100 SE56G66 N/A VSB 1/16WCI -7  

 
 
NYZ052-076-260000-  
EASTERN NEW YORK  
 
CITY SKY/WX TMP DP RH WIND PRES REMARKS
 
ALBANY RAIN 39 36 89 N7 29.84F FOG  
NEW YORK CITY CLOUDY 44 41 89 NE9 29.75R  

 
 
ANZALL-260000-  
MARINE OBSERVATIONS  
 
STATION/POSITION TIME TEMP WIND PRES VSBY WAVE
 
AIR SEA DIR/SP/G HT/PER  
(UTC) (F) (DEG/KT/KT) (MB) (MI) (FT/S)  
BOSTON BUOY 2250 45 43 90/ 21/ 25 1014.0F 6/ 6  
BUZZARDS BAY 2200 45 90/ 27/ 29 1012.4F  
NANTUCKET SOUND 2240 N/A 3/ 4  
MASS BAY-STELLWA 2204 43 41 110/ 21/ 23 1013.9F 1 7/8 8/ 6  
ISLE OF SHOALS 2300 43 90/ 25/ 27 1015.6F  
S OF BLOCK IS 2300 45 N/A 8/ 7  

 
   
.....................KEY......................
 
 
SKY/WX - SKY CONDITION/PRESENT WEATHER  
TMP - TEMPERATURE IN FAHRENHEIT  
DWPT - DEWPOINT IN FAHRENHEIT  
RH - RELATIVE HUMIDITY IN PERCENT  
WIND - DIRECTION AND SPEED IN MPH  
PRES - MEAN SEA LEVEL PRESSURE IN INCHES OF HG  
WCI - WIND CHILL INDEX  
VSB - VISIBILITY IN MILES  
HX - HEAT INDEX  
TC - TEMPERATURE IN CELSIUS  
VRB - VARIABLE WIND DIRECTION  
N/A - NOT AVAILABLE  
 
 
CLICK HERE TO GO TO PREVIOUS BULLETINS.

The Nexlab MA Page
The Nexlab RI Page
The Nexlab NH Page
The Nexlab CT Page Main Text Page